Weather History for KPLN - June, 2013

Change the Weather History Date:

Tuesday, June 18, 2013

  Actual Average Record
Temperature  
Mean Temperature 54 °F -  
Max Temperature 71 °F 74 °F 93 °F (2007)
Min Temperature 37 °F 47 °F 30 °F (1958)
Degree Days  
Heating Degree Days 11    
Growing Degree Days 4 (Base 50)    
Moisture  
Dew Point 40 °F    
Average Humidity 62    
Maximum Humidity 97    
Minimum Humidity 28    
Precipitation  
Precipitation 0.00 in - - ()
Sea Level Pressure  
Sea Level Pressure 30.11 in    
Wind  
Wind Speed 3 mph (NE)    
Max Wind Speed 13 mph    
Max Gust Speed 20 mph    
Visibility 10 miles    
Events      
Averages and records for this station are not official NWS values.
T = Trace of Precipitation, MM = Missing Value Source: NWS Daily Summary

Daily Weather History Graph

Daily Weather History Graph

Search for Another Location

Airport or City:

Trip Planner

Search our weather history database for the weather conditions in past years. The results will help you decide how hot, cold, wet, or windy it might be!

Date:

Astronomy

Jun. 18, 2013 Rise Set
Actual Time 5:49 AM EDT 9:31 PM EDT
Civil Twilight 5:11 AM EDT 10:09 PM EDT
Nautical Twilight 4:20 AM EDT 11:00 PM EDT
Astronomical Twilight 3:11 AM EDT 12:09 AM EDT
Moon 4:03 PM EDT (6/18) 2:11 AM EDT (6/18)
Length of Visible Light 16h 57m
Length of Day
15h 41m
Waxing Gibbous, 70% of the Moon is Illuminated
Jun 18
Waxing Gibbous
Jun 23
Full
Jun 30
Last Quarter
Jul 8
New
Jul 15
First Quarter

Hourly Weather History & Observations

Time (EDT) Temp. Windchill Dew Point Humidity Pressure Visibility Wind Dir Wind Speed Gust Speed Precip Events Conditions
12:54 AM 45.0 °F - 43.0 °F 93% 30.05 in 10.0 mi Calm Calm - N/A   Clear
1:54 AM 44.1 °F - 42.1 °F 93% 30.06 in 10.0 mi Calm Calm - N/A   Clear
2:54 AM 42.1 °F - 39.9 °F 92% 30.06 in 10.0 mi Calm Calm - N/A   Clear
3:54 AM 39.9 °F - 39.0 °F 97% 30.07 in 10.0 mi Calm Calm - N/A   Clear
4:54 AM 39.0 °F 36.8 °F 37.0 °F 93% 30.08 in 10.0 mi NW 3.5 mph - N/A   Clear
5:54 AM 37.9 °F - 36.0 °F 93% 30.09 in 10.0 mi Calm Calm - N/A   Clear
6:54 AM 43.0 °F - 41.0 °F 93% 30.11 in 10.0 mi Calm Calm - N/A   Clear
7:54 AM 50.0 °F - 45.0 °F 83% 30.12 in 10.0 mi Calm Calm - N/A   Clear
8:54 AM 55.9 °F - 48.9 °F 77% 30.12 in 10.0 mi ENE 4.6 mph - N/A   Clear
9:54 AM 60.1 °F - 46.0 °F 60% 30.13 in 10.0 mi ENE 9.2 mph - N/A   Clear
10:54 AM 62.1 °F - 41.0 °F 46% 30.15 in 10.0 mi East 11.5 mph - N/A   Clear
11:54 AM 64.9 °F - 39.0 °F 39% 30.15 in 10.0 mi NNE 12.7 mph 18.4 mph N/A   Clear
12:54 PM 66.0 °F - 36.0 °F 33% 30.15 in 10.0 mi NE 11.5 mph 18.4 mph N/A   Clear
1:54 PM 66.9 °F - 33.1 °F 28% 30.14 in 10.0 mi East 8.1 mph 19.6 mph N/A   Clear
2:54 PM 68.0 °F - 35.1 °F 30% 30.13 in 10.0 mi East 11.5 mph - N/A   Clear
3:54 PM 68.0 °F - 35.1 °F 30% 30.12 in 10.0 mi ESE 4.6 mph 18.4 mph N/A   Clear
4:54 PM 71.1 °F - 36.0 °F 28% 30.12 in 10.0 mi NNE 8.1 mph - N/A   Clear
5:54 PM 69.1 °F - 36.0 °F 30% 30.12 in 10.0 mi WNW 4.6 mph - N/A   Clear
6:54 PM 70.0 °F - 37.0 °F 30% 30.11 in 10.0 mi Variable 4.6 mph - N/A   Clear
7:54 PM 66.9 °F - 37.0 °F 33% 30.11 in 10.0 mi North 5.8 mph - N/A   Clear
8:54 PM 59.0 °F - 43.0 °F 55% 30.12 in 10.0 mi NW 5.8 mph - N/A   Clear
9:54 PM 55.9 °F - 41.0 °F 57% 30.12 in 10.0 mi Calm Calm - N/A   Clear
10:54 PM 46.0 °F - 42.1 °F 86% 30.14 in 10.0 mi Calm Calm - N/A   Clear
11:54 PM 44.1 °F - 41.0 °F 89% 30.14 in 10.0 mi Calm Calm - N/A   Clear